Location: Branche des Alpilles
(43.6087°N, 4.6976°E)
Time: 18:12:05
(UTC+00:00)

Envisat - Pass Details

Date: 30 November 2020
Orbit: 764 x 766 km, 98.1° (Epoch: 23 January)

Event Time Altitude Azimuth Distance (km) Brightness Sun altitude
Rises 17:11:07 0° 182° (S) 3,218 6.5 -11.6°
Reaches altitude 10° 17:13:30 10° 188° (S) 2,296 5.8 -12.0°
Maximum altitude 17:18:20 46° 261° (W) 1,030 4.2 -12.8°
Drops below altitude 10° 17:23:14 10° 335° (NNW) 2,313 5.6 -13.6°
Sets 17:25:39 0° 341° (NNW) 3,244 6.3 -14.1°
